Skip Page Navigation
NASA JPL Caltech
NASA Logo - Jet Propulsion Laboratory + View the NASA Portal
+ Center for Near-Earth Object Studies
JPL Home Earth Solar System Stars & Galaxies Technology
JPL Solar System Dynamics
BODIES ORBITS EPHEMERIDES TOOLS PHYSICAL DATA DISCOVERY FAQ SITE MAP
IMPORTANT: The SSD Announcement email list is now available. Major changes are coming in the near future, including possible hostname and/or URL changes. To be notified of such changes, subscribe to this email list.

Please visit this page for more details.


JPL Small-Body Database Browser
Search: [ help ]  
212473 (2006 QR52)
Classification: Main-belt Asteroid          SPK-ID: 2212473
Ephemeris | Orbit Diagram | Orbital Elements | Mission Design | Physical Parameters | Discovery Circumstances ]

[ show orbit diagram ]
Orbital Elements at Epoch 2458600.5 (2019-Apr-27.0) TDB
Reference: JPL 15 (heliocentric ecliptic J2000)
 Element Value Uncertainty (1-sigma)   Units 
e .05334116307895428 4.8487e-08  
a 2.72944031176162 2.8121e-08 au
q 2.583848790977672 1.3578e-07 au
i 4.406560693566447 5.4854e-06 deg
node 114.6990037549784 8.0145e-05 deg
peri 175.8142452305253 0.00010083 deg
M 331.3200476280108 6.1939e-05 deg
tp 2458731.715383498091
(2019-Sep-05.21538350)
0.00028385 TDB
period 1647.057758207727
4.51
2.5454e-05
6.969e-08
d
yr
n .2185715699440559 3.3779e-09 deg/d
Q 2.875031832545568 2.9621e-08 au
  Orbit Determination Parameters
   # obs. used (total)      305  
   data-arc span      8015 days (21.94 yr)  
   first obs. used      1996-05-09  
   last obs. used      2018-04-19  
   planetary ephem.      DE431  
   SB-pert. ephem.      SB431-N16  
   condition code      0  
   norm. resid. RMS      .56995  
   source      ORB  
   producer      Otto Matic  
   solution date      2019-Jul-14 07:37:04  

Additional Information
 Earth MOID = 1.56694 au 
 Jupiter MOID = 2.21419 au 
 T_jup = 3.349 
[ show covariance matrix ]

Ephemeris | Orbit Diagram | Orbital Elements | Mission Design | Physical Parameters | Discovery Circumstances ]

Physical Parameter Table
Parameter Symbol Value Units Sigma Reference Notes
absolute magnitude H 16.0   n/a MPO437020  

212473 (2006 QR52)          Discovered 2006-Aug-23 by NEAT at Palomar
Reference: 20090409/Numbers.arcLast Updated: 2009-04-10

Alternate Designations
 2006 QR52 = 2004 BE149 
Ephemeris | Orbit Diagram | Orbital Elements | Mission Design | Physical Parameters | Discovery Circumstances ]
ABOUT SSD CREDITS/AWARDS PRIVACY/COPYRIGHT GLOSSARY LINKS
FirstGov
(server date/time)  
NASA Home Page
Site Manager:   Ryan S. Park
Webmaster  Alan B. Chamberlin